FW3933 Weather Reports


Display with metric or nautical units.
time (UTC)temp
F
wind
direction
speed
MPH
gust
MPH
rain 1hr
in
rain 24hr
in
rain mn
in
humidity
%
barometer
mb
20260503232048 63 274 1.0 9.0 0.00 0.00 0.00 67 1016.1
20260503231549 62 241 2.0 10.0 0.00 0.00 0.00 69 1016.0
20260503231051 62 292 2.0 10.0 0.00 0.00 0.00 68 1016.0
20260503230648 63 301 1.0 9.0 0.00 0.00 0.00 66 1016.1
20260503230049 63 338 1.0 9.0 0.00 0.00 0.00 67 1016.2
20260503225549 63 277 2.0 9.0 0.00 0.00 0.00 67 1016.1
20260503225049 64 282 2.0 9.0 0.00 0.00 0.00 65 1016.0
20260503224549 64 304 0.0 8.0 0.00 0.00 0.00 67 1016.0
20260503224049 65 261 2.0 8.0 0.00 0.00 0.00 64 1015.9
20260503223549 66 276 1.0 7.0 0.00 0.00 0.00 64 1015.9
20260503223048 65 230 0.0 5.0 0.00 0.00 0.00 66 1015.9
20260503222551 65 282 0.0 7.0 0.00 0.00 0.00 66 1016.0
20260503222047 65 201 1.0 7.0 0.00 0.00 0.00 65 1016.0
20260503221547 64 255 0.0 7.0 0.00 0.00 0.00 65 1016.0
20260503221050 65 301 1.0 6.0 0.00 0.00 0.00 64 1016.0
20260503220647 65 294 0.0 5.0 0.00 0.00 0.00 65 1016.1
20260503220104 65 314 0.0 6.0 0.00 0.00 0.00 67 1016.1
20260503215545 64 271 0.0 6.0 0.00 0.00 0.00 65 1016.1
20260503215043 64 268 0.0 5.0 0.00 0.00 0.00 67 1016.1
20260503214545 63 330 1.0 7.0 0.00 0.00 0.00 66 1016.2
20260503214048 63 301 0.0 8.0 0.00 0.00 0.00 68 1016.2
20260503213543 63 305 0.0 8.0 0.00 0.00 0.00 67 1016.1
20260503213047 62 253 0.0 5.0 0.00 0.00 0.00 70 1016.1
20260503212543 62 262 1.0 7.0 0.00 0.00 0.00 68 1016.1
20260503212042 62 303 2.0 8.0 0.00 0.00 0.00 69 1016.2
20260503211559 62 294 0.0 6.0 0.00 0.00 0.00 68 1016.2
20260503211047 62 299 1.0 5.0 0.00 0.00 0.00 68 1016.2
20260503210643 62 311 0.0 6.0 0.00 0.00 0.00 68 1016.3
20260503210043 62 311 0.0 6.0 0.00 0.00 0.00 68 1016.3
20260503205543 62 278 0.0 6.0 0.00 0.00 0.00 68 1016.3
20260503205044 62 216 1.0 6.0 0.00 0.00 0.00 66 1016.3
20260503204542 62 283 0.0 5.0 0.00 0.00 0.00 67 1016.3
20260503204042 63 336 1.0 6.0 0.00 0.00 0.00 67 1016.4
20260503203542 62 283 0.0 7.0 0.00 0.00 0.00 69 1016.5
20260503203043 63 275 1.0 7.0 0.00 0.00 0.00 67 1016.5
20260503202543 63 303 0.0 3.0 0.00 0.00 0.00 67 1016.4
20260503202042 64 313 0.0 3.0 0.00 0.00 0.00 66 1016.4
20260503201542 63 344 0.0 1.0 0.00 0.00 0.00 67 1016.5
20260503201042 63 2 0.0 1.0 0.00 0.00 0.00 67 1016.5
20260503200642 63 95 0.0 4.0 0.00 0.00 0.00 66 1016.6
20260503200043 63 96 0.0 4.0 0.00 0.00 0.00 66 1016.6
20260503195541 64 100 0.0 5.0 0.00 0.00 0.00 67 1016.7
20260503195040 63 100 0.0 5.0 0.00 0.00 0.00 66 1016.7
20260503194540 63 110 0.0 5.0 0.00 0.00 0.00 67 1016.7
20260503194040 63 125 0.0 5.0 0.00 0.00 0.00 68 1016.7
20260503193539 63 182 0.0 5.0 0.00 0.00 0.00 68 1016.7
20260503193043 63 109 0.0 0.0 0.00 0.00 0.00 67 1016.7
20260503192537 62 103 0.0 0.0 0.00 0.00 0.00 69 1016.7
20260503192038 62 87 0.0 3.0 0.00 0.00 0.00 69 1016.8
20260503191538 62 84 0.0 3.0 0.00 0.00 0.00 70 1016.8
20260503191036 62 98 0.0 3.0 0.00 0.00 0.00 69 1016.9
20260503190635 61 170 0.0 2.0 0.00 0.00 0.00 71 1016.9
20260503190037 61 186 0.0 2.0 0.00 0.00 0.00 71 1016.9
20260503185534 60 185 0.0 3.0 0.00 0.00 0.00 71 1016.9
20260503185033 60 304 0.0 3.0 0.00 0.00 0.00 70 1017.0
20260503184533 60 316 0.0 5.0 0.00 0.00 0.00 72 1017.0
20260503184032 59 194 0.0 5.0 0.00 0.00 0.00 73 1017.0
20260503183532 59 225 0.0 4.0 0.00 0.00 0.00 73 1017.0
20260503183037 59 296 0.0 3.0 0.00 0.00 0.00 72 1016.9
20260503182531 59 239 0.0 4.0 0.00 0.00 0.00 72 1017.0
20260503182031 59 277 0.0 4.0 0.00 0.00 0.00 72 1017.0
20260503181559 59 228 0.0 4.0 0.00 0.00 0.00 74 1016.9
20260503181031 59 297 0.0 4.0 0.00 0.00 0.00 73 1016.8
20260503180631 59 297 0.0 3.0 0.00 0.00 0.00 74 1016.9
20260503180030 59 297 0.0 3.0 0.00 0.00 0.00 73 1016.9
20260503175529 59 307 0.0 3.0 0.00 0.00 0.00 73 1016.8
20260503175029 59 201 0.0 2.0 0.00 0.00 0.00 73 1016.8
20260503174527 58 192 0.0 4.0 0.00 0.00 0.00 75 1016.8
20260503174026 58 229 0.0 3.0 0.00 0.00 0.00 75 1016.8
20260503173525 57 167 0.0 5.0 0.00 0.00 0.00 77 1016.8
20260503173041 56 193 0.0 5.0 0.00 0.00 0.00 78 1016.9
20260503172522 56 189 0.0 2.0 0.00 0.00 0.00 79 1016.9
20260503172022 55 189 0.0 2.0 0.00 0.00 0.00 78 1016.8
20260503171521 55 188 0.0 5.0 0.00 0.00 0.00 80 1016.7
20260503171021 55 188 0.0 5.0 0.00 0.00 0.00 80 1016.8
20260503170621 55 175 1.0 3.0 0.00 0.00 0.00 79 1016.8
20260503151010 51 272 0.0 5.0 0.00 0.00 0.00 85 1015.9
20260503150612 51 299 0.0 5.0 0.00 0.00 0.00 85 1015.9
20260503131002 51 295 0.0 0.0 0.00 0.00 0.00 90 1014.5
20260503130601 51 295 0.0 0.0 0.00 0.00 0.00 90 1014.4
20260503110607 52 295 0.0 0.0 0.00 0.00 0.00 90 1014.3
20260503100107 52 295 0.0 0.0 0.00 0.00 0.00 87 1014.5
20260503081553 54 295 0.0 0.0 0.00 0.00 0.00 83 1015.2
20260503081049 54 295 0.0 0.0 0.00 0.00 0.00 83 1015.3
20260503080552 54 295 0.0 0.0 0.00 0.00 0.00 84 1015.3
20260503072544 54 295 0.0 0.0 0.00 0.00 0.00 83 1015.4
20260503072044 54 295 0.0 0.0 0.00 0.00 0.00 83 1015.6
20260503071546 55 295 0.0 0.0 0.00 0.00 0.00 83 1015.6
20260503071047 55 295 0.0 0.0 0.00 0.00 0.00 82 1015.5
20260503070543 55 295 0.0 0.0 0.00 0.00 0.00 83 1015.6
20260503060110 56 295 0.0 0.0 0.00 0.00 0.00 78 1015.6
20260503055046 56 295 0.0 0.0 0.00 0.00 0.00 78 1015.6
20260503054545 56 295 0.0 0.0 0.00 0.00 0.00 78 1015.6
20260503054044 56 295 0.0 3.0 0.00 0.00 0.00 78 1015.7
20260503053544 56 295 0.0 3.0 0.00 0.00 0.00 77 1015.6
20260503053045 56 295 0.0 0.0 0.00 0.00 0.00 77 1015.6
20260503052543 57 295 0.0 0.0 0.00 0.00 0.00 77 1015.7
20260503052044 57 295 0.0 0.0 0.00 0.00 0.00 76 1015.7
20260503051547 57 295 0.0 0.0 0.00 0.00 0.00 75 1015.7
20260503051043 57 295 0.0 0.0 0.00 0.00 0.00 74 1015.6
20260503050544 57 295 0.0 0.0 0.00 0.00 0.00 73 1015.6
20260503050042 57 295 0.0 0.0 0.00 0.00 0.00 73 1015.6
20260503045543 57 295 0.0 0.0 0.00 0.00 0.00 72 1015.5
20260503045043 57 295 0.0 0.0 0.00 0.00 0.00 73 1015.5
20260503044610 57 295 0.0 0.0 0.00 0.00 0.00 73 1015.5
20260503044042 57 295 0.0 3.0 0.00 0.00 0.00 72 1015.5
20260503043543 57 295 0.0 3.0 0.00 0.00 0.00 72 1015.4
20260503043042 57 295 0.0 0.0 0.00 0.00 0.00 72 1015.3
20260503042543 58 295 0.0 2.0 0.00 0.00 0.00 73 1015.2
20260503042046 58 295 0.0 3.0 0.00 0.00 0.00 74 1015.1
20260503041542 58 295 0.0 3.0 0.00 0.00 0.00 74 1015.1
20260503041042 58 292 0.0 3.0 0.00 0.00 0.00 73 1015.1
20260503040541 58 272 0.0 0.0 0.00 0.00 0.00 72 1014.9
20260503040042 59 272 0.0 1.0 0.00 0.00 0.00 71 1014.9
20260503035545 59 272 0.0 1.0 0.00 0.00 0.00 71 1014.9
20260503035042 59 272 0.0 4.0 0.00 0.00 0.00 69 1014.8
20260503034540 59 272 0.0 4.0 0.00 0.00 0.00 69 1014.7
20260503034040 59 268 0.0 5.0 0.00 0.00 0.00 67 1014.6
20260503033540 60 268 0.0 5.0 0.00 0.00 0.00 68 1014.7
20260503033041 60 258 0.0 6.0 0.00 0.00 0.00 67 1014.6
20260503032542 60 263 0.0 6.0 0.00 0.00 0.00 66 1014.5
20260503032042 61 200 0.0 6.0 0.00 0.00 0.00 63 1014.5
20260503031541 61 176 0.0 6.0 0.00 0.00 0.00 62 1014.4
20260503031042 61 290 0.0 3.0 0.00 0.00 0.00 60 1014.4
20260503030540 61 291 0.0 4.0 0.00 0.00 0.00 58 1014.3
20260503030043 61 296 0.0 4.0 0.00 0.00 0.00 58 1014.3
20260503025541 62 250 0.0 4.0 0.00 0.00 0.00 58 1014.4
20260503025040 62 253 0.0 3.0 0.00 0.00 0.00 59 1014.3
20260503024540 62 245 0.0 2.0 0.00 0.00 0.00 60 1014.3
20260503024040 62 245 0.0 2.0 0.00 0.00 0.00 59 1014.3
20260503023539 63 244 0.0 3.0 0.00 0.00 0.00 57 1014.3
20260503023042 63 234 0.0 3.0 0.00 0.00 0.00 57 1014.2
20260503022539 63 256 0.0 3.0 0.00 0.00 0.00 57 1014.1
20260503022039 63 263 0.0 3.0 0.00 0.00 0.00 56 1014.1
20260503021539 64 255 0.0 2.0 0.00 0.00 0.00 56 1014.1
20260503021039 64 298 0.0 2.0 0.00 0.00 0.00 55 1014.0
20260503020539 64 284 0.0 3.0 0.00 0.00 0.00 55 1014.0
20260503020040 64 284 0.0 3.0 0.00 0.00 0.00 55 1014.0
20260503015540 65 288 0.0 7.0 0.00 0.00 0.00 55 1014.0
20260503015039 65 223 0.0 7.0 0.00 0.00 0.00 54 1014.1
20260503014549 66 213 1.0 7.0 0.00 0.00 0.00 53 1014.1
20260503014039 66 233 0.0 7.0 0.00 0.00 0.00 52 1014.1
20260503013541 66 284 0.0 3.0 0.00 0.00 0.00 55 1014.0
20260503013041 67 176 0.0 5.0 0.00 0.00 0.00 52 1014.0
20260503012543 67 176 0.0 5.0 0.00 0.00 0.00 53 1014.0
20260503012039 66 256 0.0 5.0 0.00 0.00 0.00 53 1014.0
20260503011539 67 178 1.0 5.0 0.00 0.00 0.00 51 1014.0
20260503011039 67 203 0.0 7.0 0.00 0.00 0.00 50 1014.0
20260503010539 68 168 0.0 7.0 0.00 0.00 0.00 51 1014.0
20260503010050 68 168 0.0 7.0 0.00 0.00 0.00 51 1014.0
20260503005549 69 157 4.0 7.0 0.00 0.00 0.00 49 1014.0
20260503005050 69 95 0.0 6.0 0.00 0.00 0.00 49 1014.0
20260503004558 70 3 0.0 6.0 0.00 0.00 0.00 47 1014.1
20260503004049 70 107 0.0 4.0 0.00 0.00 0.00 48 1014.0
20260503003549 70 99 0.0 6.0 0.00 0.00 0.00 47 1014.0
20260503003051 70 97 0.0 7.0 0.00 0.00 0.00 49 1014.0
20260503002554 71 95 2.0 7.0 0.00 0.00 0.00 45 1013.9
20260503002048 71 102 1.0 6.0 0.00 0.00 0.00 46 1013.9
20260503001552 71 92 1.0 9.0 0.00 0.00 0.00 46 1014.0
20260503001052 71 87 2.0 7.0 0.00 0.00 0.00 47 1014.0
20260503000548 71 103 3.0 9.0 0.00 0.00 0.00 51 1014.0
20260503000050 71 105 2.0 9.0 0.00 0.00 0.00 52 1014.0
20260502235545 71 103 3.0 9.0 0.00 0.00 0.00 50 1014.0
20260502235045 71 91 3.0 9.0 0.00 0.00 0.00 49 1014.0
20260502234554 71 101 2.0 11.0 0.00 0.00 0.00 49 1014.0
20260502234045 71 107 5.0 12.0 0.00 0.00 0.00 46 1014.0
20260502233547 71 86 6.0 12.0 0.00 0.00 0.00 45 1014.0
20260502233044 71 96 4.0 9.0 0.00 0.00 0.00 45 1014.1
20260502232544 72 92 3.0 13.0 0.00 0.00 0.00 46 1014.0